TimeCST,TemperatureF,Dew PointF,Humidity,Sea Level PressureIn,VisibilityMPH,Wind Direction,Wind SpeedMPH,Gust SpeedMPH,PrecipitationIn,Events,Conditions,WindDirDegrees,DateUTC
12:15 AM,32.0,32.0,100,30.11,10.0,NNE,23.0,27.6,0.00,,Overcast,20,2012-11-09 06:15:00
12:35 AM,32.0,32.0,100,30.12,10.0,NNE,16.1,25.3,0.00,,Overcast,20,2012-11-09 06:35:00
12:55 AM,32.0,32.0,100,30.11,10.0,NNE,16.1,27.6,0.00,,Overcast,20,2012-11-09 06:55:00
1:15 AM,32.0,32.0,100,30.11,10.0,NNE,21.9,26.5,0.00,,Overcast,20,2012-11-09 07:15:00
1:35 AM,32.0,32.0,100,30.11,10.0,NNE,21.9,-,0.00,,Overcast,20,2012-11-09 07:35:00
1:55 AM,32.0,32.0,100,30.11,10.0,NNE,23.0,29.9,0.00,,Overcast,20,2012-11-09 07:55:00
2:15 AM,32.0,32.0,100,30.11,10.0,NNE,21.9,27.6,0.00,,Overcast,30,2012-11-09 08:15:00
2:35 AM,32.0,32.0,100,30.11,8.0,NNE,21.9,-,0.00,,Overcast,30,2012-11-09 08:35:00
2:55 AM,32.0,32.0,100,30.12,8.0,NNE,19.6,26.5,0.00,,Overcast,30,2012-11-09 08:55:00
3:15 AM,32.0,32.0,100,30.10,5.0,NNE,21.9,-,0.00,,Overcast,30,2012-11-09 09:15:00
3:35 AM,32.0,32.0,100,30.10,7.0,NNE,21.9,-,0.00,,Overcast,30,2012-11-09 09:35:00
3:55 AM,32.0,32.0,100,30.10,10.0,NNE,23.0,26.5,0.00,,Overcast,30,2012-11-09 09:55:00
4:15 AM,32.0,32.0,100,30.10,10.0,NNE,20.7,-,0.00,,Overcast,30,2012-11-09 10:15:00
4:35 AM,32.0,32.0,100,30.10,10.0,NNE,20.7,26.5,0.00,,Overcast,30,2012-11-09 10:35:00
4:55 AM,32.0,32.0,100,30.10,10.0,NNE,20.7,-,0.00,,Overcast,20,2012-11-09 10:55:00
5:15 AM,32.0,32.0,100,30.10,10.0,NNE,16.1,24.2,0.00,,Overcast,30,2012-11-09 11:15:00
5:35 AM,32.0,32.0,100,30.09,10.0,NNE,19.6,25.3,0.00,,Overcast,30,2012-11-09 11:35:00
5:55 AM,32.0,32.0,100,30.09,10.0,NNE,19.6,-,0.00,,Overcast,30,2012-11-09 11:55:00
6:15 AM,32.0,32.0,100,30.09,10.0,NNE,16.1,-,0.00,,Overcast,30,2012-11-09 12:15:00
6:35 AM,32.0,32.0,100,30.10,10.0,NNE,18.4,-,0.00,,Overcast,30,2012-11-09 12:35:00
6:55 AM,32.0,32.0,100,30.09,10.0,NNE,15.0,-,0.00,,Overcast,30,2012-11-09 12:55:00
7:15 AM,32.0,32.0,100,30.08,10.0,NNE,16.1,19.6,0.00,,Overcast,30,2012-11-09 13:15:00
7:35 AM,32.0,32.0,100,30.09,10.0,NE,13.8,-,0.00,,Overcast,40,2012-11-09 13:35:00
7:55 AM,32.0,32.0,100,30.09,10.0,NE,15.0,-,0.00,,Overcast,40,2012-11-09 13:55:00
8:15 AM,32.0,32.0,100,30.09,10.0,NE,16.1,-,0.00,,Overcast,40,2012-11-09 14:15:00
8:35 AM,32.0,32.0,100,30.09,10.0,NNE,15.0,-,0.00,,Overcast,30,2012-11-09 14:35:00
8:55 AM,32.0,32.0,100,30.08,10.0,NNE,15.0,-,0.00,,Overcast,30,2012-11-09 14:55:00
9:15 AM,32.0,32.0,100,30.08,10.0,NNE,13.8,-,0.00,,Overcast,30,2012-11-09 15:15:00
9:35 AM,32.0,32.0,100,30.07,10.0,NE,15.0,-,0.00,,Overcast,40,2012-11-09 15:35:00
9:55 AM,32.0,32.0,100,30.06,10.0,NE,15.0,-,0.00,,Overcast,40,2012-11-09 15:55:00
10:15 AM,33.8,32.0,93,30.05,10.0,NE,13.8,-,0.00,,Overcast,40,2012-11-09 16:15:00
10:35 AM,33.8,32.0,93,30.06,10.0,NNE,13.8,-,0.00,,Overcast,30,2012-11-09 16:35:00
10:55 AM,33.8,32.0,93,30.05,10.0,NNE,16.1,-,0.00,,Overcast,30,2012-11-09 16:55:00
11:15 AM,33.8,32.0,93,30.04,10.0,NE,16.1,-,0.00,,Overcast,40,2012-11-09 17:15:00
11:35 AM,35.6,32.0,87,30.03,10.0,NE,15.0,-,0.00,,Overcast,40,2012-11-09 17:35:00
11:55 AM,35.6,32.0,87,30.02,10.0,NE,16.1,-,0.00,,Overcast,40,2012-11-09 17:55:00
12:15 PM,35.6,32.0,87,30.01,10.0,NE,17.3,-,0.00,,Overcast,40,2012-11-09 18:15:00
12:55 PM,35.6,32.0,87,30.00,10.0,NE,16.1,-,0.00,,Overcast,40,2012-11-09 18:55:00
1:15 PM,35.6,32.0,87,30.00,10.0,NE,15.0,-,0.00,,Overcast,40,2012-11-09 19:15:00
1:35 PM,35.6,33.8,93,30.00,10.0,NE,17.3,-,0.00,,Overcast,50,2012-11-09 19:35:00
1:55 PM,35.6,33.8,93,29.99,10.0,NE,17.3,21.9,0.00,,Overcast,40,2012-11-09 19:55:00
2:15 PM,37.4,33.8,87,29.98,10.0,NE,18.4,-,0.00,,Overcast,40,2012-11-09 20:15:00
2:35 PM,37.4,33.8,87,29.96,10.0,NE,18.4,-,0.00,,Overcast,50,2012-11-09 20:35:00
2:55 PM,37.4,33.8,87,29.96,10.0,NE,19.6,-,0.00,,Overcast,40,2012-11-09 20:55:00
3:15 PM,37.4,33.8,87,29.95,10.0,NE,16.1,-,0.00,,Overcast,50,2012-11-09 21:15:00
3:35 PM,37.4,33.8,87,29.95,10.0,NE,15.0,-,0.00,,Overcast,50,2012-11-09 21:35:00
3:55 PM,37.4,33.8,87,29.94,10.0,NE,18.4,-,0.00,,Overcast,50,2012-11-09 21:55:00
4:15 PM,37.4,33.8,87,29.94,10.0,NE,18.4,24.2,0.00,,Overcast,50,2012-11-09 22:15:00
4:35 PM,37.4,33.8,87,29.94,10.0,NE,17.3,-,0.00,,Overcast,50,2012-11-09 22:35:00
4:55 PM,37.4,33.8,87,29.94,10.0,NE,17.3,-,0.00,,Overcast,40,2012-11-09 22:55:00
5:15 PM,37.4,33.8,87,29.94,10.0,NE,16.1,-,0.00,,Overcast,50,2012-11-09 23:15:00
5:35 PM,37.4,33.8,87,29.93,10.0,NE,17.3,-,0.00,,Overcast,50,2012-11-09 23:35:00
5:55 PM,37.4,33.8,87,29.93,10.0,NE,15.0,-,0.00,,Overcast,40,2012-11-09 23:55:00
6:15 PM,37.4,33.8,87,29.93,10.0,NE,16.1,-,0.00,,Overcast,50,2012-11-10 00:15:00
6:35 PM,37.4,33.8,87,29.93,10.0,ENE,16.1,-,0.00,,Overcast,60,2012-11-10 00:35:00
6:55 PM,37.4,33.8,87,29.93,10.0,ENE,16.1,-,0.00,,Overcast,60,2012-11-10 00:55:00
7:15 PM,37.4,33.8,87,29.93,10.0,NE,16.1,-,0.00,,Overcast,50,2012-11-10 01:15:00
7:55 PM,37.4,33.8,87,29.92,10.0,ENE,15.0,-,0.00,,Overcast,60,2012-11-10 01:55:00
8:15 PM,37.4,33.8,87,29.90,10.0,ENE,17.3,-,0.00,,Overcast,60,2012-11-10 02:15:00
8:35 PM,37.4,35.6,93,29.90,10.0,ENE,17.3,21.9,0.00,,Overcast,60,2012-11-10 02:35:00
8:55 PM,37.4,35.6,93,29.90,10.0,ENE,13.8,-,0.00,,Overcast,60,2012-11-10 02:55:00
9:15 PM,37.4,35.6,93,29.90,10.0,ENE,13.8,-,0.00,,Overcast,60,2012-11-10 03:15:00
9:35 PM,37.4,35.6,93,29.90,10.0,ENE,11.5,19.6,0.00,,Overcast,70,2012-11-10 03:35:00
9:55 PM,39.2,35.6,87,29.90,10.0,ENE,11.5,-,0.00,,Overcast,70,2012-11-10 03:55:00
10:15 PM,39.2,37.4,93,29.88,10.0,ENE,12.7,-,0.00,,Overcast,70,2012-11-10 04:15:00
10:35 PM,39.2,37.4,93,29.87,10.0,ENE,13.8,-,0.00,,Overcast,70,2012-11-10 04:35:00
10:55 PM,39.2,37.4,93,29.86,3.0,ENE,13.8,-,0.00,,Overcast,70,2012-11-10 04:55:00
11:15 PM,37.4,37.4,100,29.85,5.0,ENE,12.7,-,0.00,,Overcast,70,2012-11-10 05:15:00
11:35 PM,39.2,39.2,100,29.84,5.0,ENE,15.0,-,0.00,,Overcast,70,2012-11-10 05:35:00
11:55 PM,39.2,39.2,100,29.83,2.5,East,13.8,-,0.00,,Overcast,80,2012-11-10 05:55:00